Content
SEND FEEDBACK

Daily
Averages
Monthly
Summary
Canada

DRUMHELLER, ALBERTA


Home > North America > Canada > Alberta
Elevation: 2254 feet     Latitude: 51 28N     Longitude: 112 43W

WEATHER
 
SELECT A DAY
Number of Records: 139,605;   Date Range: 1/1/95 - 9/30/14
 
SHARE

PRINT THIS DATA

[ ← Previous Day ]
WEATHER ALMANAC - APRIL 10, 2013
[ Next Day → ]
[ °C ]   °F
Weather ElementAverageHighLow
Temperature38.3 °F51.8 °F (4:00 pm)30.4 °F (7:00 am)
Dewpoint24.6 °F35.6 °F (7:00 pm)16.9 °F (12:00 am)
Humidity56.9 %78 % (11:00 pm)38 % (12:00 pm)
Barometer29.80 in30.12 in (12:00 am)29.56 in (6:00 pm)
Wind Speed11.3 mph17.3 mph (10:00 am)
Weather ElementAverage
Wind DirectionSSE (157 °)

Weather ElementTotal
Precipitation0.02 in
Heating Degree Days23.9 (Base 65)
Averaged from 27 records on April 10, 2013
WEATHER CONDITIONS BREAKOUT
WIND DIRECTION BREAKOUT
WEATHER BY HOUR - APRIL 10, 2013
[ °C ]   °F
Local TimeTemperatureDewpointHumidityBarometerVisibilityWind DirectionWind SpeedGust SpeedPrecipitationEventsConditions
12:00 AM31.6 °F16.9 °F54 %30.12 inSE (130°)13.8 mph
1:00 AM31.6 °F17.4 °F56 %30.09 inSE (130°)15.0 mph
2:00 AM31.3 °F17.6 °F57 %30.07 inSE (130°)16.1 mph
3:00 AM30.7 °F18.1 °F60 %30.04 inSE (140°)10.4 mph
4:00 AM30.9 °F18.5 °F60 %30.00 inSE (130°)11.5 mph
5:00 AM30.7 °F18.3 °F60 %29.96 inSE (140°)11.5 mph
6:00 AM30.6 °F18.1 °F60 %29.93 inSE (130°)10.4 mph
6:00 AM31.0 °F18.0 °F46 %29.93 inSE (130°)10.4 mph
7:00 AM30.4 °F18.0 °F60 %29.91 inSE (130°)13.8 mph
8:00 AM30.6 °F18.5 °F61 %29.89 inSE (140°)10.4 mph
9:00 AM31.8 °F19.0 °F59 %29.86 inSE (140°)16.1 mph
10:00 AM34.5 °F20.1 °F56 %29.82 inSE (140°)17.3 mph
11:00 AM37.0 °F21.7 °F54 %29.78 inSE (130°)16.1 mph
12:00 PM40.6 °F24.1 °F52 %29.74 inSSE (150°)15.0 mph
12:00 PM41.0 °F24.0 °F38 %29.74 inSSE (150°)15.0 mph
1:00 PM43.5 °F26.2 °F51 %29.70 inSE (140°)10.4 mph
2:00 PM46.4 °F27.3 °F47 %29.66 inSE (140°)9.2 mph
3:00 PM50.2 °F29.1 °F44 %29.62 inSSE (150°)8.1 mph
4:00 PM51.8 °F31.1 °F45 %29.58 inSSE (150°)10.4 mph
5:00 PM49.1 °F33.4 °F55 %29.57 inSSE (150°)8.1 mph
6:00 PM47.8 °F34.7 °F60 %29.56 inSSE (150°)8.1 mph
6:00 PM48.0 °F35.0 °F49 %29.56 inSSE (150°)8.1 mph
7:00 PM46.2 °F35.6 °F66 %29.57 inSouth (190°)3.5 mph
8:00 PM44.4 °F31.5 °F60 %29.62 inNNE (20°)8.1 mph
9:00 PM39.9 °F31.1 °F71 %29.68 inNW (320°)12.7 mph
10:00 PM37.0 °F30.6 °F77 %29.74 inNNW (330°)8.1 mph0.02 in
11:00 PM36.3 °F30.2 °F78 %29.76 inNW (310°)6.9 mph
Hourly data recorded from CWDZ, located miles away from Drumheller, Alberta







STORIES FROM OUR PARTNERS